Starlink 5339

operational
NORAD ID: 56510 Int'l Des: 2023-065 Owner: SPXS Country: US Constellation: starlink
LEOCIRCULAR

关于 Starlink 5339

正在加载描述...

实时位置

正在加载3D地球...

即将过境

高度历史

Altitude vs Time

uPlot chart will show altitude changes over time

两行轨道根数

1 56510U 23065H 25307.99053367 -.00000068 00000-0 10071-4 0 9990
2 56510 43.0029 173.5878 0001282 266.5669 93.5026 15.02539512137716
Epoch: Nov 3, 2025 • Age: 17 hours

当前状态

高度 571.3 km
速度 7.58 km/s
星下点 -42.57°S, 152.66°E
发射日期 May 14, 2023
运行时间 2.4 years
类型 internet

技术详情

分类 Payload
质量 305.00 kg
干质量 290.00 kg
总质量 305.00 kg
长度 0.20 m
直径 2.80 m
跨度 9.00 m
形状 Box + pan
制造商 SPXS
平台类型 Starlink
阶段状态 In Orbit
所有者/国家 SPXS/US

大型星座

Loading constellations...